Wetbulb
41.26 43.83 44.99 44.53 45.11 45.60 46.22 46.22 46.05 46.10 47.44 47.04 46.54 47.43 47.78 49.09 50.50 51.62 53.02 54.82 55.18 56.40 57.96 57.31 57.49 59.24 61.94 62.96 62.96 62.41 62.28 62.32 62.57 60.10 59.56 60.04 59.95 60.31 61.76 63.59 63.50 63.21 62.88
39.81 42.08 42.54 43.57 43.94 44.15 44.86 44.89 44.76 45.51 45.67 45.45 45.27 45.52 45.89 47.30 48.32 49.61 50.97 51.87 53.43 53.91 55.46 55.67 55.19 57.42 58.63 59.90 61.00 61.99 61.45 61.68 62.31 60.15 58.53 56.87 58.72 58.37 60.15 60.81 62.94 63.12 63.62
38.16 39.57 40.45 42.42 42.49 43.22 43.79 44.80 44.46 45.00 45.64 45.91 45.25 44.91 45.19 45.92 46.86 48.23 49.25 50.21 51.70 51.96 52.89 53.35 53.65 54.19 57.60 57.10 58.58 59.16 60.50 60.09 61.09 61.43 60.29 56.35 54.68 55.51 58.16 58.59 61.50 62.45 63.20
38.24 39.14 39.23 40.66 41.47 42.61 43.61 44.38 45.02 45.30 46.09 45.37 44.46 43.09 42.46 42.31 44.43 45.99 47.75 48.77 50.37 50.57 51.81 51.23 52.45 52.12 53.84 54.94 56.93 58.37 57.75 58.91 59.65 60.32 62.44 62.16 59.65 56.88 55.32 56.60 57.83 59.84 61.04
38.03 38.37 40.00 41.46 41.82 42.44 42.80 43.20 44.71 45.08 44.91 44.63 44.47 42.81 42.16 43.02 44.10 44.92 45.57 46.77 48.38 49.07 50.29 50.11 51.14 50.12 51.44 53.01 55.10 55.71 55.61 57.63 55.89 60.35 60.09 60.31 60.68 60.47 58.19 56.43 58.21 57.22 59.87
39.04 40.57 39.82 41.00 41.26 41.89 42.05 43.46 43.81 44.35 44.54 44.16 44.14 42.91 42.44 42.49 42.90 43.65 44.80 45.86 47.25 47.28 48.19 48.74 49.73 49.33 50.23 52.34 54.07 52.78 52.86 52.03 52.59 54.87 59.44 60.20 58.24 58.71 58.34 56.81 56.21 55.83 57.68
38.82 38.82 39.78 40.52 40.45 40.46 42.15 43.90 43.54 43.48 43.96 43.69 43.68 43.14 42.89 42.82 42.81 43.06 44.02 44.49 45.71 46.05 46.83 46.56 48.29 48.40 49.27 51.38 51.28 51.41 50.75 50.50 50.69 51.40 53.59 56.49 59.85 60.72 60.40 58.68 57.28 56.33 57.81
38.97 38.84 40.44 40.55 40.65 40.66 42.94 43.06 43.41 43.38 43.60 43.36 43.24 42.89 43.17 43.11 43.49 43.69 43.92 44.15 44.87 45.63 46.40 46.25 47.85 47.97 49.15 50.69 47.90 48.62 48.11 46.97 48.37 49.67 51.41 52.23 54.90 56.57 60.61 58.82 56.89 55.06 56.20
38.50 39.06 41.25 41.41 40.85 41.27 42.98 42.58 43.33 43.43 43.71 43.21 42.92 42.36 42.89 43.26 42.99 43.29 43.78 44.20 44.68 46.60 46.34 45.70 46.46 46.88 47.58 49.04 46.39 46.00 45.89 44.57 45.36 46.24 48.83 51.34 53.05 54.28 55.57 59.46 59.66 57.38 53.58
38.93 39.49 40.03 41.36 41.52 41.91 42.07 42.99 43.50 43.46 43.80 43.19 42.82 43.24 42.94 43.26 43.44 43.28 43.02 43.64 43.88 44.72 45.27 45.34 45.79 46.09 46.04 46.80 45.47 44.31 44.11 42.33 42.78 44.88 45.48 50.10 51.72 52.79 54.34 54.18 55.75 58.82 57.00
38.45 39.18 39.89 40.82 41.49 41.47 41.41 42.50 43.32 43.12 42.69 42.88 42.68 42.50 42.81 43.09 42.91 42.58 42.92 43.17 43.22 43.65 44.79 45.34 45.25 45.55 45.09 45.38 43.81 43.07 42.42 40.74 40.51 42.42 44.76 48.96 49.76 49.10 50.77 51.34 50.76 50.14 50.05
38.90 39.50 39.79 40.41 40.96 41.01 41.30 41.86 42.28 42.64 42.71 42.46 42.56 42.46 43.21 42.92 41.90 41.77 42.63 43.07 42.17 43.60 44.44 44.72 43.97 43.91 45.20 44.60 42.55 41.61 41.31 39.73 39.13 40.67 42.21 45.91 48.58 47.78 47.84 48.10 46.89 46.17 46.03
38.78 39.09 39.61 39.72 39.99 40.56 41.33 41.73 41.73 42.16 42.77 42.73 42.05 41.84 42.00 42.02 41.64 41.29 41.85 42.49 42.36 42.64 43.34 43.58 42.29 42.69 43.96 43.74 41.64 40.56 39.84 39.28 38.99 39.84 41.71 44.33 43.84 46.23 46.09 44.91 42.92 43.14 43.31
39.39 39.24 38.71 38.79 39.60 40.72 41.35 41.79 41.85 42.14 42.81 42.67 41.73 41.27 41.20 41.55 41.47 41.42 41.37 41.71 42.41 42.01 42.56 42.93 42.41 42.58 42.98 42.71 40.27 39.04 37.93 38.38 38.48 40.05 40.99 42.39 42.43 41.79 40.93 40.58 39.38 40.03 39.59
38.77 38.94 38.89 38.73 39.48 39.75 40.31 41.37 41.61 42.12 42.74 42.12 41.64 41.24 41.69 41.68 41.62 40.99 40.49 40.88 41.57 42.02 41.97 42.05 41.70 41.67 41.81 40.89 37.58 36.86 36.75 37.34 37.38 38.71 40.09 39.20 40.74 39.17 37.40 36.58 35.63 36.05 36.27
39.01 39.90 40.71 40.82 40.24 40.28 40.34 41.30 41.39 41.63 42.46 41.71 41.63 42.16 42.04 41.84 41.25 39.94 39.53 39.83 39.79 40.39 40.35 40.23 40.52 39.93 41.86 37.75 37.49 36.49 35.73 37.03 36.78 35.91 37.67 37.27 38.71 37.35 36.67 35.82 35.34 35.08 34.12
38.88 39.30 39.58 39.92 40.20 39.97 41.35 40.33 40.97 41.56 41.09 41.58 42.56 42.65 42.44 41.61 40.56 39.30 38.93 38.71 37.92 38.72 38.03 38.64 38.81 39.01 39.03 37.05 37.61 36.74 35.53 35.55 35.54 35.07 35.45 35.78 37.07 36.37 35.48 34.81 34.50 34.50 35.00
38.41 38.77 38.50 38.64 38.98 39.61 39.64 40.06 40.95 40.99 41.01 41.31 42.24 42.89 42.13 40.91 39.31 37.96 37.75 37.34 37.57 37.42 36.79 37.11 37.92 37.91 38.36 36.87 37.32 35.84 34.62 34.55 34.72 34.72 34.87 34.62 35.12 35.44 34.81 33.27 33.29 33.52 33.60
38.28 38.05 38.56 38.86 38.78 38.45 39.91 39.46 39.33 40.08 40.61 41.33 41.66 42.32 42.07 40.19 38.50 37.12 36.45 36.25 36.37 36.17 36.03 36.80 37.06 36.51 36.12 36.45 36.11 35.07 33.30 33.28 32.58 33.79 34.11 36.13 35.00 34.85 34.60 32.64 31.79 31.69 31.55
39.31 39.20 40.05 39.99 39.09 40.21 40.29 37.97 38.17 38.15 38.54 40.30 41.44 42.65 41.76 40.50 38.17 36.91 36.02 36.37 36.00 36.09 36.02 36.29 36.35 37.00 36.05 36.27 36.53 35.24 33.00 31.17 31.36 32.25 33.36 33.52 32.63 32.68 32.85 32.30 31.16 29.57 30.62
38.30 39.01 38.55 38.72 40.30 40.80 41.33 40.01 39.62 39.13 41.19 41.21 41.41 42.29 42.18 39.62 38.52 36.92 36.38 37.54 36.94 35.93 35.09 34.52 35.19 35.88 36.27 35.78 36.31 36.19 32.82 31.22 30.28 30.45 29.66 30.55 32.53 33.23 33.16 33.02 31.78 30.98 32.65
37.24 37.13 36.21 37.33 39.18 38.52 38.98 37.81 37.75 39.75 41.26 42.26 41.88 41.82 39.66 38.40 38.94 38.28 37.82 36.34 35.38 34.16 33.04 32.42 33.23 34.23 34.94 35.03 35.61 36.11 35.17 33.67 30.88 29.47 28.79 29.21 32.42 33.36 33.10 32.21 32.08 32.37 31.52
35.21 36.12 35.36 35.59 36.66 37.41 37.65 36.08 37.16 38.30 38.43 38.93 39.79 40.81 40.77 39.90 39.32 37.09 36.13 35.18 34.85 33.35 31.99 31.56 31.35 31.97 33.29 32.93 34.36 34.91 34.84 33.91 31.13 30.11 29.69 31.94 32.79 32.96 30.14 31.22 31.55 31.30 32.87
35.11 35.66 34.73 33.98 34.53 35.99 36.84 36.74 37.69 37.82 37.04 36.19 36.44 37.52 37.92 36.74 37.42 37.33 35.42 34.99 33.90 32.93 32.40 31.79 31.05 29.95 29.62 30.21 30.40 29.97 30.21 32.14 31.48 29.68 29.75 28.52 28.58 27.46 27.55 27.40 30.21 31.85 32.53
34.96 34.59 31.57 32.91 34.38 35.22 34.74 36.05 36.97 37.43 35.94 35.55 35.90 36.01 35.90 35.64 36.07 36.61 35.98 36.12 35.82 34.75 31.72 31.91 31.72 29.16 27.62 29.80 31.95 31.11 29.48 28.25 29.23 27.97 24.10 23.01 21.81 22.75 24.15 26.21 28.62 30.20 32.08
31.94 30.21 29.88 30.82 33.14 34.31 34.04 34.91 35.87 36.03 34.81 33.99 34.43 34.96 35.17 35.55 35.15 34.75 34.52 35.17 33.31 33.59 33.82 33.67 30.71 31.49 32.48 33.13 33.96 34.21 34.11 34.01 33.49 24.26 19.08 22.88 21.14 22.87 25.19 25.84 27.39 28.53 31.16
MSLP
1031.16 1031.16 1031.22 1031.31 1031.31 1031.08 1030.94 1030.88 1030.55 1030.39 1029.90 1029.79 1029.57 1029.19 1028.86 1028.60 1028.04 1027.74 1027.34 1026.85 1026.54 1026.03 1025.59 1025.23 1024.67 1023.88 1023.26 1022.62 1021.99 1022.03 1021.73 1021.92 1022.04 1021.82 1021.62 1021.13 1020.98 1021.18 1021.08 1021.04 1021.25 1021.33 1021.44
1031.33 1031.28 1031.52 1031.64 1031.78 1031.63 1031.41 1031.22 1030.98 1030.74 1030.51 1030.30 1030.26 1030.06 1029.61 1029.18 1028.83 1028.36 1027.83 1027.41 1027.02 1026.64 1026.09 1025.68 1025.22 1024.53 1023.77 1023.13 1022.69 1022.33 1022.36 1021.93 1022.49 1022.21 1021.96 1021.55 1020.94 1020.57 1020.48 1020.43 1020.63 1020.65 1020.68
1031.63 1031.66 1031.67 1031.78 1031.92 1031.82 1031.63 1031.33 1031.18 1031.09 1030.95 1030.67 1030.66 1030.29 1029.85 1029.35 1029.03 1028.61 1028.26 1027.92 1027.58 1027.26 1026.85 1026.35 1025.88 1025.38 1024.64 1024.16 1023.59 1023.28 1022.94 1022.34 1022.34 1022.56 1022.49 1021.84 1020.90 1020.68 1020.21 1019.85 1019.82 1019.84 1020.08
1031.79 1031.64 1031.68 1031.82 1031.79 1031.78 1031.56 1031.36 1031.31 1031.28 1031.10 1030.97 1031.04 1030.94 1030.81 1030.50 1030.11 1029.65 1029.11 1028.62 1028.18 1027.70 1027.29 1026.88 1026.39 1025.99 1025.50 1024.90 1024.33 1023.83 1023.73 1023.15 1022.15 1022.10 1021.74 1021.49 1021.25 1020.87 1020.80 1020.11 1019.41 1019.40 1019.42
1031.83 1031.82 1031.81 1031.75 1031.82 1031.84 1031.73 1031.44 1031.43 1031.53 1031.40 1031.14 1031.12 1031.13 1031.16 1030.90 1030.52 1030.12 1029.63 1029.12 1028.66 1028.25 1027.77 1027.31 1026.93 1026.56 1026.06 1025.55 1024.99 1024.50 1024.03 1023.47 1023.07 1021.75 1021.45 1021.15 1021.14 1020.79 1020.79 1020.56 1020.11 1019.60 1019.36
1031.85 1031.78 1031.84 1031.84 1031.96 1031.91 1031.74 1031.51 1031.52 1031.56 1031.38 1031.16 1031.21 1031.26 1031.20 1031.02 1030.78 1030.38 1029.99 1029.49 1028.98 1028.61 1028.16 1027.72 1027.39 1026.98 1026.53 1026.08 1025.57 1025.28 1024.87 1024.47 1023.64 1022.67 1021.36 1020.67 1020.28 1020.14 1020.36 1020.64 1020.03 1020.19 1019.21
1031.96 1031.91 1031.86 1031.94 1031.79 1031.84 1031.86 1031.69 1031.57 1031.57 1031.36 1031.21 1031.19 1031.20 1031.14 1030.93 1030.72 1030.45 1030.16 1029.73 1029.29 1028.82 1028.42 1028.22 1027.80 1027.23 1026.75 1026.44 1026.31 1025.81 1025.40 1024.90 1024.34 1023.51 1022.48 1021.55 1020.43 1020.22 1020.00 1019.78 1019.41 1019.69 1019.36
1031.86 1031.84 1031.76 1031.74 1031.59 1031.59 1031.58 1031.56 1031.50 1031.42 1031.26 1031.14 1031.01 1030.85 1030.81 1030.81 1030.75 1030.57 1030.32 1030.03 1029.71 1029.21 1028.63 1028.35 1028.13 1027.63 1026.99 1026.64 1026.68 1026.36 1025.99 1025.56 1024.90 1024.11 1023.31 1022.37 1021.15 1020.42 1019.20 1019.23 1019.55 1019.62 1019.31
1031.86 1031.63 1031.53 1031.40 1031.35 1031.31 1031.38 1031.35 1031.26 1031.12 1031.05 1030.94 1030.77 1030.74 1030.68 1030.71 1030.67 1030.39 1030.13 1029.88 1029.46 1028.83 1028.52 1028.33 1028.27 1027.95 1027.45 1026.96 1026.85 1026.72 1026.29 1025.78 1025.10 1024.40 1023.54 1022.73 1021.63 1021.41 1020.01 1019.03 1018.33 1018.54 1018.17
1031.65 1031.38 1031.26 1031.14 1030.94 1030.83 1030.85 1030.90 1030.89 1030.80 1030.76 1030.65 1030.47 1030.38 1030.24 1030.18 1030.18 1030.06 1029.99 1029.73 1029.43 1029.09 1028.74 1028.40 1028.23 1027.92 1027.62 1027.56 1027.26 1027.07 1026.55 1026.07 1025.42 1024.73 1023.95 1022.99 1022.20 1021.34 1020.86 1020.29 1019.02 1018.03 1017.54
1031.32 1031.13 1030.95 1030.68 1030.49 1030.43 1030.43 1030.39 1030.46 1030.50 1030.46 1030.33 1030.27 1030.11 1029.94 1029.87 1029.94 1030.06 1029.97 1029.80 1029.51 1029.20 1028.96 1028.58 1028.18 1027.77 1027.57 1027.69 1027.74 1027.44 1027.01 1026.45 1025.84 1025.19 1024.44 1023.39 1022.71 1022.19 1021.57 1020.78 1020.44 1019.33 1019.27
1030.86 1030.74 1030.67 1030.41 1030.19 1030.02 1030.01 1030.03 1029.94 1030.00 1029.98 1030.10 1030.08 1029.92 1029.75 1029.64 1029.66 1029.72 1029.66 1029.62 1029.45 1029.07 1028.79 1028.45 1028.12 1027.82 1027.60 1027.60 1027.81 1027.74 1027.36 1026.82 1026.15 1025.46 1024.85 1023.95 1023.17 1022.66 1022.29 1021.79 1021.46 1020.71 1020.63
1030.52 1030.43 1030.43 1030.23 1029.98 1029.69 1029.58 1029.53 1029.40 1029.36 1029.41 1029.64 1029.70 1029.67 1029.59 1029.49 1029.36 1029.41 1029.37 1029.27 1029.15 1028.97 1028.67 1028.36 1028.16 1027.85 1027.61 1027.66 1027.70 1027.62 1027.43 1027.03 1026.50 1025.79 1025.10 1024.38 1023.70 1023.07 1022.84 1022.43 1022.13 1021.81 1021.07
1030.18 1030.12 1030.08 1029.90 1029.69 1029.36 1029.12 1028.98 1028.93 1028.78 1028.83 1029.01 1029.08 1029.19 1029.20 1029.06 1028.91 1028.89 1028.93 1028.82 1028.66 1028.64 1028.46 1028.24 1028.09 1027.77 1027.42 1027.30 1027.73 1027.61 1027.36 1027.05 1026.54 1026.01 1025.36 1024.77 1024.27 1024.05 1023.87 1023.45 1023.02 1022.33 1021.69
1030.09 1030.14 1029.82 1029.44 1029.16 1028.88 1028.63 1028.61 1028.58 1028.47 1028.34 1028.43 1028.45 1028.39 1028.31 1028.27 1028.34 1028.38 1028.37 1028.19 1028.16 1028.16 1028.11 1027.93 1027.75 1027.51 1027.37 1027.29 1027.41 1027.45 1027.39 1027.09 1026.62 1026.09 1025.50 1025.16 1024.86 1024.56 1024.38 1024.16 1023.79 1023.22 1022.44
1030.59 1030.41 1030.18 1029.99 1029.69 1029.32 1028.88 1028.61 1028.47 1028.04 1027.72 1027.84 1027.75 1027.42 1027.47 1027.44 1027.54 1027.57 1027.71 1027.67 1027.55 1027.58 1027.61 1027.60 1027.52 1027.38 1027.08 1027.32 1027.16 1027.11 1027.14 1026.99 1026.68 1026.19 1025.70 1025.35 1024.87 1024.86 1024.54 1024.22 1023.94 1023.61 1022.87
1030.78 1030.59 1030.32 1030.06 1029.68 1029.33 1029.06 1028.85 1028.39 1027.76 1027.51 1027.16 1026.70 1026.48 1026.37 1026.50 1026.58 1026.78 1026.89 1027.01 1026.97 1026.98 1027.10 1027.06 1026.96 1026.92 1026.93 1027.15 1026.96 1026.91 1026.69 1026.65 1026.48 1026.12 1025.64 1025.18 1024.78 1024.76 1024.45 1024.18 1023.85 1023.44 1023.08
1030.89 1030.58 1030.35 1030.00 1029.42 1028.97 1028.56 1028.01 1027.57 1027.25 1026.96 1026.67 1026.23 1025.74 1025.48 1025.50 1025.63 1025.85 1026.03 1026.07 1026.18 1026.27 1026.34 1026.38 1026.43 1026.42 1026.31 1026.49 1026.54 1026.51 1026.28 1026.22 1026.16 1025.93 1025.58 1025.15 1024.85 1024.57 1024.22 1023.79 1023.29 1023.07 1022.84
1031.19 1030.78 1030.26 1029.76 1029.17 1028.66 1027.92 1027.50 1027.15 1026.76 1026.37 1025.90 1025.43 1024.92 1024.47 1024.54 1024.63 1024.93 1025.03 1025.18 1025.39 1025.53 1025.62 1025.57 1025.71 1025.78 1025.73 1025.68 1025.89 1025.94 1025.92 1025.78 1025.66 1025.53 1025.22 1024.80 1024.70 1024.35 1024.19 1023.89 1023.20 1022.51 1022.02
1031.80 1031.75 1031.10 1030.35 1029.81 1029.14 1028.40 1027.86 1027.15 1026.45 1025.84 1025.22 1024.56 1023.97 1023.66 1023.55 1023.70 1023.67 1023.95 1024.21 1024.56 1024.59 1024.83 1025.04 1024.98 1025.04 1024.94 1024.92 1024.95 1025.17 1025.37 1025.39 1025.24 1025.10 1024.85 1024.69 1024.56 1024.32 1023.98 1023.71 1023.23 1022.49 1021.94
1032.70 1032.19 1031.59 1031.25 1030.81 1030.11 1029.24 1028.59 1027.84 1027.27 1026.32 1025.08 1024.04 1023.28 1022.92 1022.71 1022.47 1023.00 1023.38 1023.45 1023.36 1024.05 1024.05 1024.32 1024.28 1024.38 1024.20 1024.19 1024.08 1024.11 1024.39 1024.54 1024.64 1024.62 1024.48 1024.28 1024.02 1023.68 1023.26 1022.96 1022.74 1022.27 1021.66
1032.78 1032.52 1032.22 1031.83 1031.28 1030.75 1030.07 1029.48 1028.81 1028.14 1027.02 1025.64 1024.04 1022.91 1022.25 1022.07 1022.28 1022.56 1022.49 1022.75 1022.90 1023.18 1023.45 1023.68 1023.78 1023.75 1023.65 1023.48 1023.35 1023.23 1023.31 1023.47 1023.68 1023.77 1023.59 1023.41 1023.01 1022.62 1022.18 1021.93 1021.69 1021.31 1020.79
1033.16 1032.93 1032.66 1032.23 1031.71 1031.15 1030.61 1029.97 1029.29 1028.47 1027.39 1026.24 1025.02 1024.10 1023.31 1022.64 1022.29 1022.28 1022.36 1022.62 1023.33 1023.25 1022.97 1023.26 1023.40 1023.33 1023.20 1023.13 1022.88 1022.69 1022.62 1022.61 1022.85 1022.74 1022.63 1022.35 1022.08 1021.86 1021.59 1021.18 1020.74 1020.18 1019.75
1033.23 1033.01 1032.61 1032.12 1031.63 1031.11 1030.66 1030.14 1029.39 1028.70 1027.90 1026.90 1025.81 1025.04 1024.50 1023.57 1023.03 1022.37 1022.69 1022.68 1022.83 1022.48 1022.60 1022.93 1022.92 1022.66 1022.90 1022.71 1022.45 1022.29 1022.06 1021.99 1022.09 1021.87 1021.73 1021.69 1021.61 1021.42 1021.15 1020.69 1020.12 1019.60 1018.89
1033.43 1033.20 1032.76 1032.21 1031.62 1031.02 1030.54 1029.88 1029.27 1028.65 1027.87 1027.07 1026.20 1025.28 1024.64 1024.39 1023.76 1023.27 1023.11 1022.97 1022.66 1022.37 1022.10 1022.27 1022.23 1022.21 1022.15 1022.00 1021.46 1021.33 1021.36 1021.32 1021.21 1021.08 1021.23 1021.31 1021.10 1020.99 1020.72 1020.33 1019.79 1019.12 1018.51
1033.43 1033.06 1032.69 1032.09 1031.29 1030.65 1030.10 1029.42 1029.06 1028.58 1027.92 1026.97 1026.15 1025.48 1024.78 1024.06 1023.67 1023.37 1023.02 1022.69 1022.66 1022.10 1021.64 1021.64 1021.59 1021.40 1021.07 1020.84 1020.70 1020.39 1020.19 1020.12 1020.09 1020.63 1020.61 1020.44 1020.18 1020.05 1019.78 1019.54 1019.08 1018.59 1017.97
Wind_Speed
3 5 5 6 6 7 8 6 7 7 7 7 7 8 7 5 7 7 8 10 9 11 9 7 9 9 8 5 9 4 4 6 3 1 4 5 5 6 5 6 7 9 11
5 5 6 6 6 4 6 6 6 7 5 4 3 3 3 3 3 4 7 8 10 11 11 10 10 11 10 11 11 6 5 3 2 2 1 4 6 3 5 5 7 10 8
6 5 7 6 4 5 6 6 6 7 6 6 4 3 3 3 5 7 8 6 9 10 10 10 10 11 8 8 10 11 11 7 3 3 3 3 5 1 3 6 7 9 8
4 4 7 5 4 3 4 6 6 6 5 6 5 7 4 5 4 4 5 6 7 10 8 9 9 10 9 11 9 8 8 9 8 4 7 6 4 4 6 4 4 4 6
6 6 7 6 3 3 3 4 7 6 4 6 6 5 5 2 3 4 8 6 6 7 8 9 7 9 7 9 12 12 13 8 10 7 6 4 3 4 5 10 10 4 2
6 6 5 5 2 1 3 5 6 4 5 6 6 6 6 5 5 5 5 6 6 5 6 8 6 6 7 9 8 9 11 10 11 10 9 7 6 3 2 4 2 3 7
6 5 5 4 3 3 1 1 4 3 3 5 5 5 5 5 6 5 4 7 6 6 8 6 6 6 7 9 10 9 10 11 10 12 10 10 8 8 8 6 7 5 7
5 5 5 1 2 2 4 1 3 3 2 3 3 4 5 3 3 4 4 4 4 5 6 6 5 6 7 8 9 8 7 10 9 12 10 9 8 11 8 9 8 10 9
5 6 6 4 3 3 5 4 3 3 2 2 2 3 3 4 4 5 4 3 5 6 7 6 5 5 6 6 6 6 8 10 9 10 10 8 8 8 8 9 10 13 13
7 6 6 7 5 4 4 5 5 4 3 2 1 1 1 2 3 5 6 6 6 6 7 6 6 5 5 5 6 6 8 10 8 8 11 9 8 9 7 9 9 8 10
8 7 7 7 7 4 4 5 6 5 6 4 3 2 1 1 2 3 4 5 5 6 6 6 6 6 5 4 5 6 8 10 10 9 11 11 10 8 7 8 9 9 10
8 8 7 7 7 7 6 7 6 7 7 6 5 4 3 2 2 4 4 5 6 6 5 5 6 6 5 3 4 5 7 9 10 10 10 11 8 8 8 7 8 8 9
8 7 7 8 8 7 7 7 7 7 7 6 6 5 5 4 5 5 5 5 5 6 5 4 5 6 5 2 2 4 6 7 9 9 10 10 10 8 8 8 8 7 8
8 7 7 8 7 8 8 7 7 7 7 7 7 7 7 7 6 5 5 5 5 5 5 5 5 6 6 4 3 3 5 6 7 9 9 9 10 9 9 8 9 10 10
6 7 8 8 8 8 8 7 7 6 7 8 7 8 8 7 6 6 6 5 4 4 5 5 5 6 5 2 3 4 4 5 6 7 7 8 7 11 9 7 8 9 8
6 8 10 9 8 8 7 6 8 8 7 8 9 8 8 7 8 7 7 6 5 4 4 5 5 5 2 6 6 4 4 5 4 5 6 7 5 6 10 11 11 9 10
6 7 7 7 7 7 7 8 8 8 7 9 11 10 9 9 8 7 7 7 6 4 5 5 5 4 3 10 9 6 4 4 5 5 5 5 6 5 6 9 10 8 10
7 7 6 7 8 6 8 8 8 8 9 11 12 11 11 8 8 8 8 7 5 6 6 6 6 5 5 9 9 4 3 4 5 5 6 5 8 8 13 14 14 12 8
7 6 7 8 8 9 11 9 8 8 8 11 12 14 12 10 10 9 8 6 5 5 6 5 6 6 6 7 9 5 3 4 5 5 6 5 5 8 14 13 15 16 12
15 16 17 14 13 17 16 11 11 9 10 11 13 13 11 12 12 10 8 6 5 6 5 6 6 8 7 9 9 6 4 4 4 5 5 7 9 10 15 10 12 15 14
14 14 14 12 13 15 16 15 15 15 18 16 15 13 12 13 10 6 4 5 6 6 6 6 6 7 7 7 10 8 4 4 4 4 4 4 10 14 13 13 9 11 12
13 14 12 13 14 15 14 15 14 16 17 18 18 16 10 6 5 6 5 6 6 6 6 5 5 5 6 9 10 11 9 7 4 5 4 5 13 15 16 13 13 15 10
8 9 9 11 11 12 13 14 15 15 15 15 16 14 11 6 6 5 4 2 4 5 4 4 5 4 4 5 10 11 12 12 6 5 9 14 15 16 10 14 17 11 5
6 8 11 13 13 12 12 11 13 14 12 11 11 13 15 10 5 2 2 3 4 4 3 4 5 4 4 4 5 5 5 9 8 8 8 7 9 9 9 7 9 8 5
4 7 12 11 13 12 13 12 12 14 15 13 10 8 5 9 11 8 5 6 5 5 4 4 4 3 3 5 9 7 4 5 8 7 2 3 2 3 4 5 7 8 8
8 10 12 14 15 15 15 15 12 13 15 15 11 10 8 4 4 4 5 8 8 10 7 9 5 4 11 11 13 12 13 15 14 2 3 4 4 5 6 6 7 6 9
Wind_Direction
190 113 100 63 49 30 46 44 51 18 37 23 11 11 6 2 10 8 4 10 7 7 13 11 359 1 341 320 311 341 335 318 322 352 305 278 223 236 232 202 215 212 210
58 49 93 78 54 47 47 58 52 42 25 29 359 6 333 335 339 349 359 4 10 9 13 5 3 356 356 355 358 343 303 273 324 293 159 285 296 289 240 207 208 217 210
80 30 63 96 73 51 34 58 62 55 31 42 18 345 346 337 6 10 8 356 4 9 12 8 7 359 351 358 348 354 327 287 261 192 243 283 237 348 265 238 219 213 206
82 57 55 95 102 59 46 64 71 50 39 40 47 35 19 8 338 340 343 352 356 0 3 4 9 6 359 354 341 347 326 329 279 269 215 221 239 237 298 314 287 249 219
107 65 74 123 74 61 58 61 73 60 31 50 61 50 32 340 317 335 347 342 354 352 351 358 1 4 355 350 350 1 354 338 338 272 256 234 215 210 210 264 277 325 271
83 73 74 99 92 13 23 56 74 64 37 44 49 46 40 9 9 356 354 349 348 347 347 354 356 354 359 354 5 357 353 345 340 327 319 248 248 238 142 234 310 298 303
106 84 85 40 4 48 5 107 88 78 57 55 57 37 33 27 11 356 348 353 348 350 350 356 354 357 353 15 358 354 351 346 336 338 325 329 271 244 239 221 247 256 295
129 121 151 150 296 28 198 230 134 130 87 60 52 32 27 26 2 349 342 338 328 328 329 353 353 350 349 22 6 350 346 341 336 335 330 329 327 338 240 232 235 255 245
163 160 192 203 270 299 247 236 193 167 128 91 88 38 24 18 353 349 347 329 324 335 341 344 349 357 353 4 4 346 340 340 335 329 334 330 330 314 333 294 229 238 250
189 198 195 211 227 217 225 224 225 199 187 155 112 103 43 8 342 349 342 339 330 331 331 336 341 347 15 10 6 345 340 342 336 332 329 335 344 338 333 332 345 267 234
206 211 222 230 228 231 222 217 216 210 214 199 193 190 207 272 316 327 318 317 322 326 326 328 339 343 358 15 1 340 341 341 337 335 334 335 352 348 352 347 356 356 350
213 222 227 229 227 230 226 213 218 212 214 210 201 214 221 236 273 295 295 298 309 318 321 336 338 338 332 24 4 338 333 336 336 332 334 337 346 349 355 359 344 347 343
237 240 246 238 232 228 227 227 232 228 210 200 207 220 232 242 251 269 279 284 299 310 312 324 329 324 319 336 15 342 328 323 326 326 329 325 345 351 358 357 359 344 340
238 237 252 256 251 241 234 236 242 225 210 202 207 219 230 237 238 240 256 276 290 299 299 303 303 313 313 312 15 344 333 317 330 328 330 347 351 18 13 1 354 343 332
268 278 268 264 251 241 248 250 245 242 212 210 209 219 224 232 234 227 238 258 277 283 289 296 295 295 308 301 326 346 326 316 326 324 331 347 11 23 18 4 349 341 333
32 23 12 347 324 296 282 261 249 241 218 221 220 220 219 224 218 215 230 231 246 258 269 292 287 300 271 218 259 305 305 316 318 326 325 332 351 1 355 354 342 331 332
359 347 337 332 328 317 299 285 275 274 257 235 227 222 218 218 212 211 213 228 236 215 250 265 277 265 214 218 236 288 296 302 305 311 309 320 332 319 341 339 325 319 310
336 325 314 310 303 283 283 271 269 264 258 256 248 237 227 215 207 206 217 218 216 220 232 249 259 221 220 209 226 253 297 289 292 296 297 296 323 325 334 331 328 325 321
301 284 276 274 277 284 285 284 286 280 278 273 261 247 225 216 207 210 212 217 210 224 231 230 248 219 231 210 191 200 253 272 284 287 288 304 322 317 331 323 322 319 318
11 8 358 344 338 334 328 316 303 291 284 279 277 261 236 216 212 208 205 208 213 220 220 245 235 229 233 223 212 203 206 250 265 270 286 331 311 318 319 316 316 313 314
6 3 2 355 349 357 352 351 345 343 325 311 298 276 245 226 211 206 211 224 204 222 222 235 247 236 232 232 225 222 203 227 231 243 254 249 281 299 304 287 289 294 298
5 5 1 356 354 354 350 347 344 333 330 331 309 289 252 226 226 231 240 231 211 209 224 239 250 247 245 231 234 226 233 228 220 238 243 249 259 266 282 296 284 292 282
358 356 353 344 343 347 346 338 331 334 334 336 338 327 314 291 275 254 237 186 274 255 243 227 243 253 257 246 252 256 254 250 245 234 244 255 266 279 289 278 279 285 275
349 348 344 339 331 333 327 320 323 325 324 331 345 350 329 316 320 8 340 311 260 241 248 249 247 236 247 254 250 245 256 264 260 250 257 253 253 260 267 283 283 277 258
335 333 330 316 309 315 312 308 314 323 322 317 314 323 344 350 345 342 333 313 284 246 239 248 235 228 242 243 231 221 232 234 242 254 234 239 240 243 251 254 260 269 278
332 332 328 319 316 316 316 313 318 319 315 310 310 310 302 286 272 274 286 282 258 278 262 242 211 251 242 254 261 260 262 265 263 181 220 252 243 249 267 264 263 256 262